Home   Weather   Washington Hill   Past weeks
Flag for USA

Past Weather in Washington Hill, Alabama, USA — Yesterday and Last 2 Weeks

Now
66 °F

Partly sunny.


Feels Like: 66 °F
Forecast: 82 / 67 °F
Wind: 6 mph from East

Location: Maxwell Air Force Base / Montgomery

Current Time: Feb 23, 2019 at 9:05:37 am

Latest Report: Feb 23, 2019 at 8:11 am


Visibility: 10 mi

Pressure: 30.09 "Hg

Humidity: 88%

Dew Point: 63 °F

Location of Washington HillLocation

Past Weather in Washington Hill — Graph

°F

Washington Hill Temperature Yesterday

Maximum temperature yesterday: 84 °F (at 1:56 pm)
Minimum temperature yesterday: 64 °F (at 7:11 am)
Average temperature yesterday: 72 °F

High & Low Weather Summary for the Past Weeks

 TemperatureHumidityPressure
High84 °F (Feb 22, 1:56 pm)100% (Feb 11, 8:11 pm)30.57 "Hg (Feb 11, 8:11 pm)
Low37 °F (Feb 13, 6:56 am)23% (Feb 13, 1:56 pm)29.75 "Hg (Feb 16, 2:56 am)
Average59 °F77%30.07 "Hg
* Reported Feb 8 7:56 am — Feb 23 7:56 am, Washington Hill. Weather by CustomWeather, © 2019

Note: Actual official high and low records may vary slightly from our data, if they occured in-between our weather recording intervals... More about our weather records

Advertising

Washington Hill Weather History for the Previous 24 Hours

Scroll right to see more
 ConditionsComfort  
Time TempWeatherWind HumidityBarometerVisibility
7:56 am
Sat, Feb 23
66 °FPartly sunny.7 mph87%30.09 "Hg10 mi
7:11 am64 °FLow clouds.5 mph94%30.09 "Hg10 mi
6:56 am65 °FMostly cloudy.3 mph91%30.07 "Hg10 mi
5:56 am68 °FOvercast.7 mph89%30.06 "Hg10 mi
4:56 am70 °FOvercast.3 mph90%30.05 "Hg10 mi
4:26 am70 °FMostly cloudy.6 mph88%30.04 "Hg10 mi
3:56 am70 °FOvercast.8 mph89%30.03 "Hg10 mi
2:56 am69 °FOvercast.6 mph90%30.03 "Hg10 mi
1:56 am69 °FOvercast.9 mph90%30.04 "Hg10 mi
1:11 am70 °FPassing clouds.8 mph88%30.05 "Hg10 mi
12:56 am68 °FPassing clouds.9 mph92%30.06 "Hg10 mi
11:56 pm
Fri, Feb 22
67 °FOvercast.No wind92%30.07 "Hg10 mi
10:56 pm67 °FPassing clouds.No wind90%30.09 "Hg10 mi
9:56 pm69 °FPassing clouds.No wind89%30.10 "Hg10 mi
8:59 pm68 °FLight rain. Mostly cloudy.5 mph83%30.11 "Hg10 mi
8:56 pm69 °FLight rain. Mostly cloudy.8 mph79%30.11 "Hg10 mi
7:56 pm72 °FPassing clouds.8 mph76%30.09 "Hg10 mi
6:56 pm74 °FPassing clouds.8 mph71%30.08 "Hg10 mi
5:56 pm75 °FPassing clouds.8 mph69%30.06 "Hg10 mi
4:56 pm80 °FScattered clouds.13 mph60%30.05 "Hg10 mi
3:56 pm81 °FPassing clouds.13 mph55%30.04 "Hg10 mi
2:56 pm84 °FPassing clouds.9 mph50%30.04 "Hg10 mi
1:56 pm84 °FPassing clouds.7 mph52%N/A10 mi
12:56 pm83 °FPassing clouds.8 mph56%30.08 "Hg10 mi
10:56 am80 °FPartly sunny.7 mph65%30.13 "Hg10 mi
9:56 am76 °FScattered clouds.6 mph73%30.14 "Hg10 mi
9:26 am75 °FScattered clouds.5 mph78%30.14 "Hg10 mi
9:11 am75 °FPartly sunny.9 mph78%30.14 "Hg10 mi
Weather by CustomWeather, © 2019

See weather overview